Location: ????? ???????
(25.7275°N, 32.5929°E)
Time: 11:24:07
(UTC+00:00)

SWIFT - Pass Details

Date: 02 March 2021
Orbit: 544 x 559 km, 20.6° (Epoch: 15 April)

Event Time Altitude Azimuth Distance (km) Brightness Sun altitude
Rises 16:45:47 0° 247° (WSW) 2,685 7.2 -12.9°
Reaches altitude 10° 16:48:12 10° 238° (WSW) 1,793 5.9 -13.5°
Maximum altitude 16:51:59 34° 173° (S) 896 3.3 -14.3°
Enters shadow 16:54:04 21° 122° (ESE) 1,238 3.6 -14.8°
